�N����,�����b,���ԉ��x,���Ԏ��x,��󒲎�,����,�����W
2003/11/1,0:00:00,18.3 ,60.1 ,18.2 ,17.2 ,17.8 
2003/11/1,0:15:00,18.2 ,60.1 ,18.2 ,17.2 ,17.8 
2003/11/1,0:30:00,18.2 ,60.1 ,18.2 ,17.3 ,17.7 
2003/11/1,0:45:00,18.1 ,60.2 ,18.1 ,17.3 ,17.7 
2003/11/1,1:00:00,18.1 ,59.5 ,18.2 ,17.3 ,17.6 
2003/11/1,1:15:00,18.2 ,60.4 ,18.4 ,17.1 ,17.6 
2003/11/1,1:30:00,18.3 ,60.1 ,18.3 ,17.1 ,17.6 
2003/11/1,1:45:00,18.3 ,59.9 ,18.2 ,17.2 ,17.6 
2003/11/1,2:00:00,18.2 ,60.0 ,18.1 ,17.2 ,17.5 
2003/11/1,2:15:00,18.2 ,60.2 ,18.1 ,17.2 ,17.4 
2003/11/1,2:30:00,18.1 ,59.8 ,18.0 ,17.3 ,17.3 
2003/11/1,2:45:00,18.1 ,59.8 ,18.0 ,17.3 ,17.2 
2003/11/1,3:00:00,18.0 ,60.0 ,17.9 ,17.3 ,17.2 
2003/11/1,3:15:00,18.0 ,60.0 ,17.9 ,17.4 ,17.2 
2003/11/1,3:30:00,17.9 ,59.9 ,17.8 ,17.4 ,17.1 
2003/11/1,3:45:00,17.9 ,60.0 ,17.8 ,17.4 ,17.1 
2003/11/1,4:00:00,17.8 ,60.3 ,17.7 ,17.4 ,17.0 
2003/11/1,4:15:00,17.8 ,60.1 ,17.7 ,17.5 ,17.0 
2003/11/1,4:30:00,17.8 ,60.2 ,17.7 ,17.5 ,16.9 
2003/11/1,4:45:00,17.7 ,60.1 ,17.6 ,17.5 ,16.9 
2003/11/1,5:00:00,17.7 ,60.1 ,17.6 ,17.5 ,16.8 
2003/11/1,5:15:00,17.7 ,60.2 ,17.6 ,17.5 ,16.8 
2003/11/1,5:30:00,17.6 ,59.9 ,17.5 ,17.5 ,16.7 
2003/11/1,5:45:00,17.6 ,60.0 ,17.5 ,17.6 ,16.7 
2003/11/1,6:00:00,17.5 ,59.8 ,17.4 ,17.6 ,16.6 
2003/11/1,6:15:00,17.5 ,59.9 ,17.4 ,17.6 ,16.6 
2003/11/1,6:30:00,17.5 ,59.7 ,17.4 ,16.2 ,16.6 
2003/11/1,6:45:00,17.5 ,60.3 ,17.5 ,16.3 ,16.6 
2003/11/1,7:00:00,17.6 ,60.6 ,17.5 ,16.3 ,16.7 
2003/11/1,7:15:00,17.7 ,60.6 ,17.4 ,16.4 ,16.7 
2003/11/1,7:30:00,17.7 ,60.7 ,17.4 ,16.4 ,17.0 
2003/11/1,7:45:00,17.7 ,60.8 ,17.4 ,16.4 ,17.4 
2003/11/1,8:00:00,17.7 ,61.0 ,17.4 ,16.5 ,17.2 
2003/11/1,8:15:00,17.7 ,60.8 ,17.4 ,16.5 ,17.1 
2003/11/1,8:30:00,17.7 ,60.8 ,17.4 ,16.6 ,17.2 
2003/11/1,8:45:00,17.8 ,60.8 ,17.5 ,15.5 ,17.1 
2003/11/1,9:00:00,17.8 ,60.5 ,17.6 ,15.9 ,17.2 
2003/11/1,9:15:00,17.8 ,60.4 ,17.7 ,15.9 ,17.2 
2003/11/1,9:30:00,17.9 ,60.4 ,17.8 ,16.0 ,17.3 
2003/11/1,9:45:00,17.9 ,60.4 ,17.9 ,16.0 ,17.4 
2003/11/1,10:00:00,18.0 ,60.7 ,18.0 ,16.1 ,17.5 
2003/11/1,10:15:00,18.0 ,60.6 ,18.1 ,16.1 ,17.6 
2003/11/1,10:30:00,18.0 ,60.9 ,18.1 ,16.2 ,17.6 
2003/11/1,10:45:00,18.0 ,61.2 ,18.2 ,16.2 ,17.7 
2003/11/1,11:00:00,18.0 ,61.7 ,18.3 ,16.3 ,17.8 
2003/11/1,11:15:00,18.0 ,61.7 ,18.5 ,16.3 ,17.9 
2003/11/1,11:30:00,18.0 ,61.7 ,18.6 ,16.3 ,18.0 
2003/11/1,11:45:00,18.1 ,61.9 ,18.7 ,16.4 ,18.1 
2003/11/1,12:00:00,18.1 ,61.8 ,18.9 ,16.4 ,18.2 
2003/11/1,12:15:00,18.1 ,61.9 ,19.0 ,16.5 ,18.3 
2003/11/1,12:30:00,18.2 ,61.9 ,19.1 ,16.5 ,18.5 
2003/11/1,12:45:00,18.2 ,61.9 ,19.2 ,16.5 ,18.6 
2003/11/1,13:00:00,18.3 ,61.9 ,19.2 ,16.6 ,18.7 
2003/11/1,13:15:00,18.3 ,62.0 ,19.3 ,16.6 ,18.8 
2003/11/1,13:30:00,18.4 ,62.1 ,19.3 ,16.7 ,18.9 
2003/11/1,13:45:00,18.4 ,62.1 ,19.3 ,16.7 ,19.0 
2003/11/1,14:00:00,18.5 ,62.1 ,19.3 ,16.7 ,19.1 
2003/11/1,14:15:00,18.5 ,62.2 ,19.3 ,16.8 ,19.1 
2003/11/1,14:30:00,18.6 ,62.2 ,19.3 ,16.8 ,19.2 
2003/11/1,14:45:00,18.6 ,62.3 ,19.3 ,16.9 ,19.2 
2003/11/1,15:00:00,18.7 ,62.3 ,19.3 ,16.9 ,19.3 
2003/11/1,15:15:00,18.7 ,62.2 ,19.4 ,16.9 ,19.3 
2003/11/1,15:30:00,18.8 ,62.2 ,19.4 ,17.0 ,19.3 
2003/11/1,15:45:00,18.8 ,62.4 ,19.4 ,17.0 ,19.3 
2003/11/1,16:00:00,18.8 ,62.5 ,19.4 ,17.0 ,19.4 
2003/11/1,16:15:00,18.9 ,62.5 ,19.4 ,17.1 ,19.4 
2003/11/1,16:30:00,18.9 ,62.8 ,19.4 ,17.1 ,19.4 
2003/11/1,16:45:00,18.9 ,62.8 ,19.4 ,17.2 ,19.4 
2003/11/1,17:00:00,19.0 ,63.1 ,19.4 ,17.2 ,19.4 
2003/11/1,17:15:00,19.0 ,63.3 ,19.4 ,17.2 ,19.4 
2003/11/1,17:30:00,19.0 ,63.3 ,19.4 ,17.3 ,19.4 
2003/11/1,17:45:00,19.1 ,63.3 ,19.4 ,17.3 ,19.3 
2003/11/1,18:00:00,19.1 ,63.3 ,19.4 ,17.3 ,19.3 
2003/11/1,18:15:00,19.1 ,63.5 ,19.4 ,17.4 ,19.3 
2003/11/1,18:30:00,19.1 ,63.6 ,19.4 ,17.4 ,19.3 
2003/11/1,18:45:00,19.1 ,63.6 ,19.4 ,17.4 ,19.2 
2003/11/1,19:00:00,19.1 ,63.8 ,19.4 ,17.5 ,19.2 
2003/11/1,19:15:00,19.1 ,63.9 ,19.4 ,17.5 ,19.2 
2003/11/1,19:30:00,19.1 ,63.8 ,19.4 ,17.6 ,19.1 
2003/11/1,19:45:00,19.1 ,63.7 ,19.4 ,17.6 ,19.1 
2003/11/1,20:00:00,19.1 ,63.8 ,19.4 ,17.6 ,19.1 
2003/11/1,20:15:00,19.1 ,63.7 ,19.3 ,17.7 ,19.0 
2003/11/1,20:30:00,19.1 ,63.6 ,19.3 ,17.7 ,19.0 
2003/11/1,20:45:00,19.1 ,63.5 ,19.3 ,17.7 ,19.0 
2003/11/1,21:00:00,19.1 ,63.7 ,19.3 ,17.8 ,18.9 
2003/11/1,21:15:00,19.1 ,63.4 ,19.3 ,17.8 ,18.9 
2003/11/1,21:30:00,19.1 ,63.2 ,19.3 ,17.8 ,18.9 
2003/11/1,21:45:00,19.1 ,63.7 ,19.5 ,16.6 ,18.9 
2003/11/1,22:00:00,19.1 ,63.2 ,19.4 ,16.7 ,18.9 
2003/11/1,22:15:00,19.1 ,63.0 ,19.3 ,16.8 ,18.8 
2003/11/1,22:30:00,19.0 ,63.6 ,19.3 ,16.8 ,18.8 
2003/11/1,22:45:00,19.0 ,63.6 ,19.2 ,16.9 ,18.7 
2003/11/1,23:00:00,19.0 ,63.5 ,19.2 ,16.9 ,18.7 
2003/11/1,23:15:00,18.9 ,63.4 ,19.2 ,17.0 ,18.6 
2003/11/1,23:30:00,18.9 ,63.1 ,19.1 ,17.1 ,18.6 
2003/11/1,23:45:00,18.9 ,63.2 ,19.1 ,17.1 ,18.6 
2003/11/2,0:00:00,18.9 ,63.0 ,19.1 ,17.2 ,18.5 
2003/11/2,0:15:00,18.8 ,62.8 ,19.0 ,17.2 ,18.5 
2003/11/2,0:30:00,18.8 ,62.7 ,19.0 ,17.2 ,18.4 
2003/11/2,0:45:00,18.8 ,62.5 ,18.9 ,17.3 ,18.3 
2003/11/2,1:00:00,18.7 ,62.8 ,18.9 ,17.3 ,18.3 
2003/11/2,1:15:00,18.7 ,62.4 ,18.9 ,17.4 ,18.3 
2003/11/2,1:30:00,18.7 ,62.4 ,18.8 ,17.4 ,18.2 
2003/11/2,1:45:00,18.6 ,62.3 ,18.8 ,17.4 ,18.2 
2003/11/2,2:00:00,18.6 ,62.5 ,18.8 ,17.5 ,18.1 
2003/11/2,2:15:00,18.6 ,62.2 ,18.7 ,17.5 ,18.0 
2003/11/2,2:30:00,18.5 ,62.0 ,18.7 ,17.6 ,18.0 
2003/11/2,2:45:00,18.5 ,62.0 ,18.6 ,17.6 ,17.9 
2003/11/2,3:00:00,18.5 ,62.1 ,18.6 ,17.6 ,17.9 
2003/11/2,3:15:00,18.4 ,62.5 ,18.6 ,17.6 ,17.9 
2003/11/2,3:30:00,18.4 ,62.2 ,18.5 ,17.7 ,17.8 
2003/11/2,3:45:00,18.4 ,62.2 ,18.5 ,17.7 ,17.8 
2003/11/2,4:00:00,18.3 ,62.3 ,18.5 ,17.7 ,17.7 
2003/11/2,4:15:00,18.3 ,62.4 ,18.4 ,17.7 ,17.7 
2003/11/2,4:30:00,18.2 ,62.2 ,18.4 ,17.8 ,17.7 
2003/11/2,4:45:00,18.2 ,62.1 ,18.3 ,17.8 ,17.6 
2003/11/2,5:00:00,18.2 ,62.1 ,18.3 ,17.8 ,17.5 
2003/11/2,5:15:00,18.1 ,62.2 ,18.3 ,17.8 ,17.5 
2003/11/2,5:30:00,18.1 ,62.5 ,18.2 ,17.9 ,17.5 
2003/11/2,5:45:00,18.1 ,62.4 ,18.2 ,17.9 ,17.4 
2003/11/2,6:00:00,18.0 ,62.8 ,18.2 ,17.9 ,17.4 
2003/11/2,6:15:00,18.0 ,62.7 ,18.1 ,17.9 ,17.3 
2003/11/2,6:30:00,18.0 ,62.8 ,18.1 ,17.9 ,17.3 
2003/11/2,6:45:00,17.9 ,62.8 ,18.0 ,17.9 ,17.2 
2003/11/2,7:00:00,17.9 ,62.8 ,18.0 ,18.0 ,17.2 
2003/11/2,7:15:00,17.9 ,62.8 ,18.1 ,18.0 ,17.3 
2003/11/2,7:30:00,17.9 ,62.9 ,18.3 ,18.0 ,17.5 
2003/11/2,7:45:00,17.9 ,63.3 ,18.4 ,18.0 ,17.7 
2003/11/2,8:00:00,17.9 ,63.2 ,18.6 ,18.0 ,17.9 
2003/11/2,8:15:00,17.9 ,63.0 ,18.8 ,18.0 ,18.1 
2003/11/2,8:30:00,17.9 ,63.0 ,19.0 ,18.0 ,18.2 
2003/11/2,8:45:00,17.9 ,63.1 ,19.1 ,18.0 ,18.3 
2003/11/2,9:00:00,18.0 ,63.2 ,19.3 ,18.1 ,18.5 
2003/11/2,9:15:00,18.0 ,63.4 ,19.5 ,18.1 ,18.6 
2003/11/2,9:30:00,18.1 ,63.5 ,19.6 ,18.1 ,18.7 
2003/11/2,9:45:00,18.1 ,63.8 ,19.7 ,18.1 ,18.8 
2003/11/2,10:00:00,18.2 ,64.1 ,19.8 ,18.1 ,18.9 
2003/11/2,10:15:00,18.3 ,64.5 ,19.9 ,18.1 ,19.0 
2003/11/2,10:30:00,18.3 ,64.8 ,20.1 ,18.1 ,19.1 
2003/11/2,10:45:00,18.4 ,64.9 ,20.3 ,18.1 ,19.2 
2003/11/2,11:00:00,18.5 ,65.2 ,20.5 ,18.2 ,19.3 
2003/11/2,11:15:00,18.6 ,65.1 ,20.6 ,18.2 ,19.4 
2003/11/2,11:30:00,18.7 ,65.2 ,20.8 ,18.2 ,19.5 
2003/11/2,11:45:00,18.7 ,65.1 ,20.9 ,18.2 ,19.6 
2003/11/2,12:00:00,18.8 ,65.0 ,21.0 ,18.2 ,19.7 
2003/11/2,12:15:00,18.9 ,64.9 ,21.1 ,18.3 ,19.8 
2003/11/2,12:30:00,19.0 ,65.0 ,21.1 ,18.3 ,19.9 
2003/11/2,12:45:00,19.0 ,65.1 ,21.1 ,18.3 ,20.1 
2003/11/2,13:00:00,19.1 ,65.1 ,21.1 ,18.3 ,20.2 
2003/11/2,13:15:00,19.2 ,65.1 ,21.1 ,18.3 ,20.3 
2003/11/2,13:30:00,19.2 ,65.1 ,21.1 ,18.4 ,20.4 
2003/11/2,13:45:00,19.3 ,64.9 ,21.1 ,18.4 ,20.5 
2003/11/2,14:00:00,19.4 ,65.1 ,21.0 ,18.4 ,20.6 
2003/11/2,14:15:00,19.4 ,65.1 ,21.0 ,18.4 ,20.7 
2003/11/2,14:30:00,19.5 ,65.1 ,21.0 ,18.4 ,20.7 
2003/11/2,14:45:00,19.5 ,65.0 ,21.0 ,18.5 ,20.8 
2003/11/2,15:00:00,19.6 ,65.0 ,21.0 ,18.5 ,20.8 
2003/11/2,15:15:00,19.7 ,65.1 ,21.0 ,18.5 ,20.8 
2003/11/2,15:30:00,19.7 ,65.1 ,21.0 ,18.5 ,20.8 
2003/11/2,15:45:00,19.8 ,65.1 ,21.0 ,18.6 ,20.8 
2003/11/2,16:00:00,19.8 ,65.1 ,21.0 ,18.6 ,20.8 
2003/11/2,16:15:00,19.9 ,65.2 ,21.0 ,18.6 ,20.8 
2003/11/2,16:30:00,19.9 ,65.1 ,21.0 ,18.7 ,20.8 
2003/11/2,16:45:00,20.0 ,65.3 ,21.0 ,18.7 ,20.8 
2003/11/2,17:00:00,20.0 ,65.2 ,21.0 ,18.7 ,20.8 
2003/11/2,17:15:00,20.0 ,65.2 ,21.0 ,18.7 ,20.8 
2003/11/2,17:30:00,20.1 ,65.1 ,21.0 ,18.8 ,20.7 
2003/11/2,17:45:00,20.1 ,65.3 ,21.0 ,18.8 ,20.7 
2003/11/2,18:00:00,20.3 ,66.0 ,21.0 ,18.2 ,20.8 
2003/11/2,18:15:00,20.4 ,65.0 ,21.1 ,18.2 ,20.9 
2003/11/2,18:30:00,20.4 ,64.6 ,21.3 ,18.3 ,22.7 
2003/11/2,18:45:00,20.5 ,65.6 ,21.8 ,17.5 ,23.8 
2003/11/2,19:00:00,20.7 ,67.4 ,21.8 ,17.5 ,23.9 
2003/11/2,19:15:00,20.9 ,67.2 ,21.7 ,17.6 ,27.2 
2003/11/2,19:30:00,21.1 ,68.3 ,21.6 ,17.7 ,25.7 
2003/11/2,19:45:00,21.3 ,67.6 ,21.6 ,17.7 ,24.0 
2003/11/2,20:00:00,21.3 ,66.7 ,21.6 ,17.8 ,23.2 
2003/11/2,20:15:00,21.4 ,66.1 ,21.5 ,17.9 ,22.7 
2003/11/2,20:30:00,21.5 ,65.4 ,21.5 ,17.9 ,22.4 
2003/11/2,20:45:00,21.5 ,65.4 ,21.5 ,18.0 ,22.1 
2003/11/2,21:00:00,21.6 ,64.9 ,21.5 ,18.0 ,21.9 
2003/11/2,21:15:00,21.5 ,64.2 ,21.5 ,18.1 ,21.7 
2003/11/2,21:30:00,21.5 ,64.2 ,21.5 ,18.2 ,21.6 
2003/11/2,21:45:00,21.5 ,63.9 ,21.4 ,18.2 ,21.4 
2003/11/2,22:00:00,21.5 ,63.8 ,21.4 ,18.3 ,21.3 
2003/11/2,22:15:00,21.4 ,63.6 ,21.4 ,18.3 ,21.2 
2003/11/2,22:30:00,21.4 ,63.5 ,21.4 ,18.3 ,21.2 
2003/11/2,22:45:00,21.4 ,63.4 ,21.3 ,18.4 ,21.1 
2003/11/2,23:00:00,21.4 ,63.5 ,21.3 ,18.5 ,21.0 
2003/11/2,23:15:00,21.4 ,63.4 ,21.3 ,18.5 ,21.0 
2003/11/2,23:30:00,21.3 ,63.4 ,21.3 ,18.6 ,20.9 
2003/11/2,23:45:00,21.3 ,63.1 ,21.2 ,18.6 ,20.9 
2003/11/3,0:00:00,21.3 ,62.9 ,21.2 ,18.6 ,20.8 
2003/11/3,0:15:00,21.2 ,63.7 ,21.2 ,18.7 ,20.7 
2003/11/3,0:30:00,21.2 ,63.7 ,21.1 ,18.7 ,20.7 
2003/11/3,0:45:00,21.1 ,63.9 ,21.1 ,18.8 ,20.6 
2003/11/3,1:00:00,21.0 ,64.1 ,21.1 ,18.8 ,20.5 
2003/11/3,1:15:00,21.0 ,63.3 ,21.0 ,18.8 ,20.4 
2003/11/3,1:30:00,20.9 ,63.7 ,21.0 ,18.9 ,20.4 
2003/11/3,1:45:00,20.9 ,63.4 ,20.9 ,18.9 ,20.3 
2003/11/3,2:00:00,20.8 ,63.2 ,20.9 ,18.9 ,20.3 
2003/11/3,2:15:00,20.8 ,63.7 ,20.9 ,19.0 ,20.2 
2003/11/3,2:30:00,20.7 ,63.4 ,20.8 ,19.0 ,20.2 
2003/11/3,2:45:00,20.7 ,63.3 ,20.8 ,19.1 ,20.1 
2003/11/3,3:00:00,20.6 ,63.6 ,20.7 ,19.1 ,20.0 
2003/11/3,3:15:00,20.6 ,62.8 ,20.7 ,19.1 ,20.0 
2003/11/3,3:30:00,20.5 ,62.9 ,20.7 ,19.1 ,19.9 
2003/11/3,3:45:00,20.5 ,63.0 ,20.6 ,19.2 ,19.9 
2003/11/3,4:00:00,20.4 ,62.9 ,20.6 ,19.2 ,19.8 
2003/11/3,4:15:00,20.4 ,62.6 ,20.5 ,19.2 ,19.8 
2003/11/3,4:30:00,20.3 ,62.5 ,20.5 ,19.3 ,19.7 
2003/11/3,4:45:00,20.3 ,62.9 ,20.4 ,19.3 ,19.7 
2003/11/3,5:00:00,20.2 ,62.7 ,20.4 ,19.3 ,19.7 
2003/11/3,5:15:00,20.2 ,62.6 ,20.4 ,19.3 ,19.6 
2003/11/3,5:30:00,20.1 ,62.4 ,20.3 ,19.4 ,19.5 
2003/11/3,5:45:00,20.1 ,62.8 ,20.2 ,19.4 ,19.5 
2003/11/3,6:00:00,20.0 ,62.7 ,20.2 ,19.4 ,19.4 
2003/11/3,6:15:00,20.0 ,62.4 ,20.1 ,19.4 ,19.3 
2003/11/3,6:30:00,19.9 ,62.5 ,20.1 ,19.4 ,19.3 
2003/11/3,6:45:00,19.9 ,62.5 ,20.1 ,19.5 ,19.2 
2003/11/3,7:00:00,19.9 ,62.6 ,20.0 ,19.5 ,19.3 
2003/11/3,7:15:00,19.9 ,62.6 ,20.1 ,19.5 ,19.4 
2003/11/3,7:30:00,19.9 ,63.3 ,20.2 ,17.3 ,19.5 
2003/11/3,7:45:00,19.9 ,65.7 ,20.3 ,17.4 ,19.6 
2003/11/3,8:00:00,20.0 ,65.1 ,20.5 ,17.5 ,21.8 
2003/11/3,8:15:00,20.1 ,65.1 ,20.7 ,17.6 ,22.4 
2003/11/3,8:30:00,20.2 ,65.3 ,21.1 ,17.6 ,22.6 
2003/11/3,8:45:00,20.3 ,64.7 ,21.2 ,17.7 ,23.8 
2003/11/3,9:00:00,20.4 ,64.6 ,21.1 ,17.8 ,23.6 
2003/11/3,9:15:00,20.5 ,64.1 ,21.0 ,17.1 ,23.0 
2003/11/3,9:30:00,20.6 ,63.7 ,21.0 ,17.2 ,22.5 
2003/11/3,9:45:00,20.7 ,63.8 ,20.9 ,17.2 ,22.1 
2003/11/3,10:00:00,20.6 ,64.0 ,20.9 ,17.3 ,21.7 
2003/11/3,10:15:00,20.6 ,64.0 ,20.8 ,17.4 ,21.5 
2003/11/3,10:30:00,20.6 ,63.3 ,20.8 ,17.5 ,21.3 
2003/11/3,10:45:00,20.5 ,63.1 ,20.8 ,17.5 ,21.2 
2003/11/3,11:00:00,20.5 ,63.1 ,20.8 ,17.6 ,21.1 
2003/11/3,11:15:00,20.5 ,63.1 ,20.8 ,17.7 ,21.0 
2003/11/3,11:30:00,20.5 ,62.9 ,20.8 ,17.7 ,21.0 
2003/11/3,11:45:00,20.5 ,62.9 ,20.9 ,17.8 ,21.0 
2003/11/3,12:00:00,20.5 ,62.9 ,20.9 ,17.8 ,21.0 
2003/11/3,12:15:00,20.5 ,63.0 ,20.9 ,17.9 ,20.9 
2003/11/3,12:30:00,20.5 ,63.0 ,20.9 ,17.9 ,20.9 
2003/11/3,12:45:00,20.5 ,62.8 ,20.8 ,18.0 ,20.9 
2003/11/3,13:00:00,20.5 ,62.9 ,20.8 ,18.0 ,20.8 
2003/11/3,13:15:00,20.5 ,63.0 ,20.8 ,18.1 ,20.8 
2003/11/3,13:30:00,20.5 ,62.9 ,20.8 ,18.2 ,20.8 
2003/11/3,13:45:00,20.5 ,62.9 ,20.8 ,18.2 ,20.8 
2003/11/3,14:00:00,20.7 ,64.1 ,20.9 ,18.2 ,21.3 
2003/11/3,14:15:00,20.9 ,64.0 ,20.9 ,18.3 ,21.4 
2003/11/3,14:30:00,21.0 ,63.9 ,20.9 ,17.2 ,21.3 
2003/11/3,14:45:00,21.1 ,64.1 ,20.9 ,16.9 ,21.3 
2003/11/3,15:00:00,21.2 ,64.3 ,20.9 ,17.0 ,21.2 
2003/11/3,15:15:00,21.3 ,64.3 ,20.9 ,17.1 ,21.2 
2003/11/3,15:30:00,21.4 ,64.6 ,20.8 ,17.2 ,21.2 
2003/11/3,15:45:00,21.4 ,64.8 ,21.0 ,17.3 ,21.2 
2003/11/3,16:00:00,21.5 ,64.9 ,21.0 ,17.3 ,21.5 
2003/11/3,16:15:00,21.6 ,65.3 ,21.0 ,17.7 ,28.4 
2003/11/3,16:30:00,21.7 ,65.5 ,21.0 ,17.2 ,24.1 
2003/11/3,16:45:00,21.8 ,65.5 ,21.0 ,17.3 ,22.3 
2003/11/3,17:00:00,21.8 ,65.4 ,20.9 ,17.3 ,25.8 
2003/11/3,17:15:00,21.8 ,65.6 ,20.9 ,17.4 ,24.4 
2003/11/3,17:30:00,21.8 ,65.5 ,21.0 ,17.5 ,23.8 
2003/11/3,17:45:00,21.8 ,65.4 ,21.1 ,17.6 ,23.2 
2003/11/3,18:00:00,21.9 ,65.6 ,21.2 ,17.7 ,22.9 
2003/11/3,18:15:00,21.9 ,66.2 ,21.1 ,17.4 ,24.8 
2003/11/3,18:30:00,22.0 ,66.3 ,21.2 ,17.5 ,23.7 
2003/11/3,18:45:00,22.0 ,66.2 ,21.2 ,17.6 ,23.1 
2003/11/3,19:00:00,22.0 ,65.9 ,21.2 ,17.7 ,22.8 
2003/11/3,19:15:00,22.0 ,65.8 ,21.4 ,17.8 ,22.4 
2003/11/3,19:30:00,22.0 ,65.9 ,21.5 ,17.8 ,22.2 
2003/11/3,19:45:00,22.0 ,65.9 ,21.5 ,17.9 ,22.0 
2003/11/3,20:00:00,22.0 ,66.3 ,22.1 ,17.5 ,21.9 
2003/11/3,20:15:00,22.0 ,66.3 ,22.4 ,17.6 ,21.8 
2003/11/3,20:30:00,22.0 ,66.4 ,22.5 ,17.6 ,21.7 
2003/11/3,20:45:00,22.0 ,66.5 ,22.2 ,17.7 ,21.6 
2003/11/3,21:00:00,22.0 ,66.3 ,22.0 ,17.8 ,21.5 
2003/11/3,21:15:00,21.9 ,66.0 ,21.8 ,17.9 ,21.4 
2003/11/3,21:30:00,21.9 ,65.9 ,21.7 ,17.9 ,21.3 
2003/11/3,21:45:00,21.8 ,65.9 ,21.6 ,18.0 ,21.2 
2003/11/3,22:00:00,21.8 ,66.0 ,21.6 ,18.1 ,21.2 
2003/11/3,22:15:00,21.8 ,66.0 ,21.5 ,17.5 ,21.1 
2003/11/3,22:30:00,21.8 ,66.0 ,21.5 ,17.6 ,23.6 
2003/11/3,22:45:00,21.8 ,66.1 ,21.4 ,17.1 ,23.3 
2003/11/3,23:00:00,21.8 ,66.1 ,21.4 ,17.2 ,22.3 
2003/11/3,23:15:00,21.8 ,66.2 ,21.4 ,17.3 ,21.8 
2003/11/3,23:30:00,21.8 ,66.0 ,21.3 ,17.4 ,21.4 
2003/11/3,23:45:00,21.8 ,66.2 ,21.3 ,17.5 ,21.3 
2003/11/4,0:00:00,21.8 ,65.9 ,21.3 ,17.2 ,21.2 
2003/11/4,0:15:00,21.7 ,66.0 ,21.3 ,17.3 ,21.1 
2003/11/4,0:30:00,21.7 ,66.1 ,21.2 ,17.4 ,20.9 
2003/11/4,0:45:00,21.6 ,65.9 ,21.2 ,17.4 ,20.8 
2003/11/4,1:00:00,21.5 ,65.7 ,21.2 ,17.5 ,20.8 
2003/11/4,1:15:00,21.5 ,65.8 ,21.2 ,17.6 ,20.7 
2003/11/4,1:30:00,21.4 ,65.5 ,21.1 ,17.7 ,20.6 
2003/11/4,1:45:00,21.3 ,65.5 ,21.1 ,17.8 ,20.6 
2003/11/4,2:00:00,21.3 ,65.4 ,21.1 ,17.8 ,20.5 
2003/11/4,2:15:00,21.2 ,65.2 ,21.0 ,17.9 ,20.4 
2003/11/4,2:30:00,21.1 ,64.6 ,21.0 ,18.0 ,20.4 
2003/11/4,2:45:00,21.1 ,64.4 ,21.0 ,18.0 ,20.3 
2003/11/4,3:00:00,21.0 ,64.3 ,20.9 ,18.1 ,20.3 
2003/11/4,3:15:00,21.0 ,64.1 ,20.9 ,18.2 ,20.2 
2003/11/4,3:30:00,20.9 ,64.1 ,20.9 ,18.2 ,20.1 
2003/11/4,3:45:00,20.8 ,63.7 ,20.8 ,18.3 ,20.1 
2003/11/4,4:00:00,20.8 ,63.9 ,20.8 ,18.3 ,20.0 
2003/11/4,4:15:00,20.7 ,63.9 ,20.8 ,18.4 ,19.9 
2003/11/4,4:30:00,20.7 ,63.6 ,20.7 ,18.4 ,19.9 
2003/11/4,4:45:00,20.6 ,63.4 ,20.7 ,18.5 ,19.8 
2003/11/4,5:00:00,20.6 ,63.0 ,20.7 ,18.5 ,19.8 
2003/11/4,5:15:00,20.5 ,63.2 ,20.6 ,18.6 ,19.7 
2003/11/4,5:30:00,20.4 ,63.0 ,20.6 ,18.6 ,19.7 
2003/11/4,5:45:00,20.4 ,62.8 ,20.5 ,18.6 ,19.6 
2003/11/4,6:00:00,20.3 ,62.6 ,20.5 ,18.7 ,19.6 
2003/11/4,6:15:00,20.3 ,63.0 ,20.4 ,17.6 ,19.5 
2003/11/4,6:30:00,20.2 ,62.5 ,20.4 ,17.2 ,19.5 
2003/11/4,6:45:00,20.3 ,64.0 ,20.3 ,17.3 ,19.5 
2003/11/4,7:00:00,20.2 ,62.2 ,20.3 ,17.2 ,19.5 
2003/11/4,7:15:00,20.2 ,62.6 ,20.4 ,17.3 ,19.5 
2003/11/4,7:30:00,20.2 ,62.2 ,20.5 ,17.3 ,19.4 
2003/11/4,7:45:00,20.2 ,62.0 ,20.7 ,17.4 ,19.4 
2003/11/4,8:00:00,20.1 ,61.4 ,20.7 ,17.5 ,20.8 
2003/11/4,8:15:00,20.1 ,61.4 ,20.7 ,17.5 ,20.5 
2003/11/4,8:30:00,20.0 ,61.5 ,20.7 ,17.6 ,20.1 
2003/11/4,8:45:00,20.0 ,61.5 ,21.0 ,17.7 ,20.1 
2003/11/4,9:00:00,20.1 ,61.1 ,21.3 ,17.7 ,20.2 
2003/11/4,9:15:00,20.1 ,61.0 ,21.5 ,17.8 ,20.3 
2003/11/4,9:30:00,20.0 ,59.3 ,21.8 ,17.8 ,20.3 
2003/11/4,9:45:00,20.0 ,59.3 ,22.1 ,17.9 ,21.3 
2003/11/4,10:00:00,20.0 ,59.7 ,22.3 ,17.9 ,21.3 
2003/11/4,10:15:00,20.0 ,59.7 ,22.5 ,18.0 ,21.2 
2003/11/4,10:30:00,20.0 ,59.1 ,22.6 ,18.0 ,21.1 
2003/11/4,10:45:00,20.0 ,58.8 ,22.5 ,18.0 ,21.0 
2003/11/4,11:00:00,20.0 ,59.4 ,22.7 ,18.1 ,20.8 
2003/11/4,11:15:00,20.0 ,58.5 ,22.9 ,18.1 ,20.8 
2003/11/4,11:30:00,19.9 ,58.6 ,22.9 ,18.2 ,20.7 
2003/11/4,11:45:00,19.9 ,58.5 ,23.0 ,18.2 ,20.6 
2003/11/4,12:00:00,19.9 ,59.1 ,23.1 ,18.3 ,20.6 
2003/11/4,12:15:00,19.9 ,59.4 ,23.1 ,18.3 ,20.6 
2003/11/4,12:30:00,19.9 ,59.8 ,23.1 ,18.3 ,20.6 
2003/11/4,12:45:00,19.9 ,60.1 ,23.1 ,18.4 ,20.6 
2003/11/4,13:00:00,20.0 ,60.6 ,23.1 ,17.4 ,20.6 
2003/11/4,13:15:00,20.0 ,61.0 ,22.7 ,17.4 ,20.7 
2003/11/4,13:30:00,20.0 ,61.2 ,22.4 ,17.5 ,20.7 
2003/11/4,13:45:00,20.1 ,61.2 ,22.2 ,17.6 ,20.7 
2003/11/4,14:00:00,20.1 ,61.7 ,22.1 ,17.1 ,20.8 
2003/11/4,14:15:00,20.1 ,61.6 ,22.1 ,17.2 ,20.7 
2003/11/4,14:30:00,20.1 ,61.2 ,22.0 ,17.3 ,20.7 
2003/11/4,14:45:00,20.0 ,61.1 ,21.9 ,17.3 ,20.6 
2003/11/4,15:00:00,20.0 ,61.0 ,21.8 ,17.4 ,20.5 
2003/11/4,15:15:00,20.0 ,61.0 ,21.7 ,17.4 ,20.4 
2003/11/4,15:30:00,19.9 ,61.0 ,21.7 ,17.5 ,20.3 
2003/11/4,15:45:00,19.9 ,60.8 ,21.5 ,17.6 ,20.2 
2003/11/4,16:00:00,19.9 ,60.6 ,21.5 ,17.6 ,20.1 
2003/11/4,16:15:00,19.9 ,60.5 ,21.4 ,17.7 ,20.0 
2003/11/4,16:30:00,19.8 ,60.2 ,21.3 ,17.8 ,20.0 
2003/11/4,16:45:00,19.8 ,60.3 ,21.2 ,17.8 ,19.9 
2003/11/4,17:00:00,19.7 ,60.4 ,21.1 ,17.9 ,19.8 
2003/11/4,17:15:00,19.7 ,60.8 ,21.0 ,17.9 ,19.7 
2003/11/4,17:30:00,19.7 ,60.2 ,20.9 ,17.1 ,19.7 
2003/11/4,17:45:00,19.7 ,60.2 ,20.8 ,17.2 ,19.7 
2003/11/4,18:00:00,19.8 ,60.1 ,20.7 ,17.3 ,19.7 
2003/11/4,18:15:00,19.8 ,59.7 ,20.7 ,17.3 ,19.7 
2003/11/4,18:30:00,19.8 ,59.4 ,20.5 ,17.4 ,19.6 
2003/11/4,18:45:00,19.8 ,59.5 ,20.5 ,17.5 ,19.6 
2003/11/4,19:00:00,19.8 ,59.1 ,20.4 ,17.5 ,19.5 
2003/11/4,19:15:00,19.8 ,59.5 ,20.3 ,17.6 ,19.5 
2003/11/4,19:30:00,19.8 ,59.2 ,20.2 ,17.7 ,19.4 
2003/11/4,19:45:00,19.8 ,59.3 ,20.1 ,17.0 ,19.6 
2003/11/4,20:00:00,19.8 ,59.2 ,20.0 ,17.1 ,27.1 
2003/11/4,20:15:00,19.7 ,59.0 ,19.9 ,17.1 ,23.1 
2003/11/4,20:30:00,19.7 ,58.9 ,19.8 ,17.2 ,21.5 
2003/11/4,20:45:00,19.7 ,58.7 ,19.8 ,17.3 ,20.7 
2003/11/4,21:00:00,19.7 ,59.1 ,19.7 ,17.3 ,20.3 
2003/11/4,21:15:00,19.7 ,58.8 ,19.9 ,17.4 ,19.9 
2003/11/4,21:30:00,19.6 ,59.0 ,19.7 ,17.4 ,19.6 
2003/11/4,21:45:00,19.5 ,59.0 ,19.6 ,17.5 ,19.4 
2003/11/4,22:00:00,19.4 ,58.1 ,19.5 ,17.5 ,19.4 
2003/11/4,22:15:00,19.4 ,58.5 ,19.4 ,17.6 ,21.4 
2003/11/4,22:30:00,19.4 ,58.5 ,19.3 ,17.6 ,20.4 
2003/11/4,22:45:00,19.4 ,58.8 ,19.2 ,17.7 ,19.8 
2003/11/4,23:00:00,19.4 ,58.2 ,19.1 ,17.7 ,19.4 
2003/11/4,23:15:00,19.4 ,58.4 ,19.0 ,17.7 ,19.1 
2003/11/4,23:30:00,19.3 ,58.6 ,19.0 ,17.8 ,19.8 
2003/11/4,23:45:00,19.3 ,57.4 ,18.9 ,17.8 ,20.0 
2003/11/5,0:00:00,19.3 ,57.6 ,18.8 ,17.8 ,19.4 
2003/11/5,0:15:00,19.2 ,57.9 ,18.7 ,17.9 ,19.0 
2003/11/5,0:30:00,19.2 ,57.7 ,18.6 ,17.9 ,18.7 
2003/11/5,0:45:00,19.1 ,57.4 ,18.6 ,17.1 ,18.5 
2003/11/5,1:00:00,19.0 ,57.0 ,18.5 ,17.0 ,18.3 
2003/11/5,1:15:00,18.9 ,57.0 ,18.5 ,17.0 ,18.2 
2003/11/5,1:30:00,18.8 ,56.9 ,18.4 ,17.1 ,18.0 
2003/11/5,1:45:00,18.7 ,57.3 ,18.3 ,17.1 ,17.9 
2003/11/5,2:00:00,18.6 ,57.1 ,18.3 ,17.2 ,17.8 
2003/11/5,2:15:00,18.5 ,56.5 ,18.2 ,17.2 ,17.7 
2003/11/5,2:30:00,18.4 ,56.9 ,18.1 ,17.3 ,17.5 
2003/11/5,2:45:00,18.3 ,57.0 ,18.0 ,17.3 ,17.4 
2003/11/5,3:00:00,18.2 ,56.8 ,18.0 ,17.3 ,17.3 
2003/11/5,3:15:00,18.1 ,56.9 ,17.9 ,17.3 ,17.2 
2003/11/5,3:30:00,18.0 ,56.8 ,17.8 ,17.4 ,17.1 
2003/11/5,3:45:00,18.0 ,56.8 ,17.8 ,17.4 ,17.0 
2003/11/5,4:00:00,17.9 ,56.9 ,17.7 ,17.4 ,16.9 
2003/11/5,4:15:00,17.8 ,56.8 ,17.6 ,17.4 ,16.8 
2003/11/5,4:30:00,17.7 ,56.7 ,17.6 ,17.4 ,16.7 
2003/11/5,4:45:00,17.6 ,56.7 ,17.5 ,17.5 ,16.6 
2003/11/5,5:00:00,17.5 ,56.7 ,17.4 ,17.5 ,16.6 
2003/11/5,5:15:00,17.5 ,56.7 ,17.4 ,17.5 ,16.5 
2003/11/5,5:30:00,17.4 ,56.9 ,17.3 ,17.5 ,16.4 
2003/11/5,5:45:00,17.3 ,56.8 ,17.2 ,17.5 ,16.3 
2003/11/5,6:00:00,17.2 ,56.8 ,17.2 ,17.5 ,16.2 
2003/11/5,6:15:00,17.2 ,56.6 ,17.1 ,17.5 ,16.2 
2003/11/5,6:30:00,17.1 ,57.0 ,17.1 ,17.6 ,16.1 
2003/11/5,6:45:00,17.0 ,56.4 ,17.0 ,16.3 ,16.1 
2003/11/5,7:00:00,17.0 ,57.0 ,17.0 ,16.3 ,16.1 
2003/11/5,7:15:00,17.0 ,57.1 ,17.0 ,16.4 ,16.2 
2003/11/5,7:30:00,18.0 ,54.3 ,17.2 ,16.4 ,16.5 
2003/11/5,7:45:00,19.2 ,51.2 ,17.4 ,16.5 ,17.1 
2003/11/5,8:00:00,20.1 ,49.1 ,17.6 ,16.5 ,17.8 
2003/11/5,8:15:00,20.4 ,48.8 ,17.9 ,16.5 ,18.5 
2003/11/5,8:30:00,20.6 ,48.8 ,18.1 ,16.6 ,18.9 
2003/11/5,8:45:00,21.2 ,48.2 ,18.4 ,16.6 ,19.5 
2003/11/5,9:00:00,21.7 ,47.1 ,18.6 ,16.6 ,19.6 
2003/11/5,9:15:00,22.1 ,46.4 ,18.8 ,16.7 ,19.8 
2003/11/5,9:30:00,22.5 ,45.6 ,19.1 ,15.9 ,20.1 
2003/11/5,9:45:00,21.4 ,48.0 ,19.4 ,15.9 ,20.0 
2003/11/5,10:00:00,20.9 ,49.6 ,19.5 ,15.8 ,19.8 
2003/11/5,10:15:00,20.5 ,50.1 ,19.7 ,15.9 ,19.7 
2003/11/5,10:30:00,20.5 ,51.2 ,20.6 ,15.9 ,20.9 
2003/11/5,10:45:00,20.4 ,52.2 ,21.5 ,15.9 ,22.0 
2003/11/5,11:00:00,20.1 ,53.5 ,21.0 ,15.9 ,21.3 
2003/11/5,11:15:00,20.0 ,53.3 ,20.9 ,16.0 ,21.3 
2003/11/5,11:30:00,19.9 ,54.0 ,20.8 ,16.0 ,21.4 
2003/11/5,11:45:00,19.8 ,53.8 ,20.7 ,16.1 ,21.1 
2003/11/5,12:00:00,19.7 ,53.8 ,20.8 ,16.1 ,20.9 
2003/11/5,12:15:00,19.6 ,54.3 ,20.6 ,16.1 ,20.6 
2003/11/5,12:30:00,19.6 ,54.2 ,20.4 ,16.2 ,20.4 
2003/11/5,12:45:00,19.5 ,54.4 ,20.3 ,16.2 ,20.2 
2003/11/5,13:00:00,19.5 ,54.5 ,20.3 ,16.3 ,20.1 
2003/11/5,13:15:00,19.5 ,54.7 ,20.3 ,16.3 ,20.0 
2003/11/5,13:30:00,19.5 ,55.5 ,20.3 ,16.4 ,20.2 
2003/11/5,13:45:00,19.5 ,55.4 ,20.2 ,16.4 ,20.1 
2003/11/5,14:00:00,19.5 ,55.4 ,20.2 ,16.5 ,19.9 
2003/11/5,14:15:00,19.5 ,55.9 ,20.1 ,16.5 ,20.0 
2003/11/5,14:30:00,19.5 ,56.5 ,20.1 ,16.0 ,20.0 
2003/11/5,14:45:00,19.5 ,56.5 ,20.1 ,16.0 ,23.7 
2003/11/5,15:00:00,19.5 ,57.4 ,20.1 ,16.1 ,24.6 
2003/11/5,15:15:00,19.6 ,57.6 ,20.1 ,16.1 ,25.5 
2003/11/5,15:30:00,19.6 ,58.3 ,20.0 ,16.2 ,29.2 
2003/11/5,15:45:00,19.7 ,58.9 ,20.0 ,16.2 ,25.5 
2003/11/5,16:00:00,19.7 ,58.5 ,20.0 ,16.3 ,23.5 
2003/11/5,16:15:00,19.7 ,58.2 ,20.0 ,16.3 ,22.6 
2003/11/5,16:30:00,19.6 ,58.3 ,20.0 ,16.4 ,22.0 
2003/11/5,16:45:00,19.6 ,58.4 ,19.9 ,16.4 ,21.6 
2003/11/5,17:00:00,19.6 ,58.0 ,19.9 ,16.5 ,21.2 
2003/11/5,17:15:00,19.6 ,58.9 ,19.9 ,16.6 ,20.9 
2003/11/5,17:30:00,19.6 ,58.8 ,19.9 ,16.6 ,20.8 
2003/11/5,17:45:00,19.7 ,59.2 ,19.8 ,16.6 ,20.7 
2003/11/5,18:00:00,19.7 ,59.1 ,20.2 ,16.7 ,20.6 
2003/11/5,18:15:00,19.6 ,58.9 ,20.6 ,16.7 ,20.4 
2003/11/5,18:30:00,19.6 ,58.9 ,20.3 ,16.8 ,23.1 
2003/11/5,18:45:00,19.7 ,60.0 ,20.2 ,16.8 ,22.8 
2003/11/5,19:00:00,19.7 ,60.2 ,20.1 ,16.9 ,21.9 
2003/11/5,19:15:00,19.8 ,59.8 ,20.0 ,16.9 ,21.3 
2003/11/5,19:30:00,19.7 ,59.5 ,20.1 ,17.0 ,21.0 
2003/11/5,19:45:00,19.7 ,59.4 ,20.1 ,17.0 ,20.7 
2003/11/5,20:00:00,19.6 ,59.4 ,20.2 ,17.1 ,20.5 
2003/11/5,20:15:00,19.6 ,58.8 ,20.8 ,17.1 ,20.4 
2003/11/5,20:30:00,19.6 ,59.2 ,21.2 ,17.2 ,20.3 
2003/11/5,20:45:00,19.6 ,59.4 ,21.1 ,17.2 ,20.2 
2003/11/5,21:00:00,19.6 ,60.1 ,20.8 ,17.2 ,20.1 
2003/11/5,21:15:00,19.6 ,60.0 ,20.6 ,17.3 ,20.1 
2003/11/5,21:30:00,19.6 ,59.6 ,20.4 ,17.3 ,20.0 
2003/11/5,21:45:00,19.6 ,59.4 ,20.4 ,17.4 ,21.7 
2003/11/5,22:00:00,19.6 ,61.1 ,20.6 ,17.4 ,22.8 
2003/11/5,22:15:00,19.8 ,60.8 ,20.4 ,17.5 ,21.5 
2003/11/5,22:30:00,19.8 ,60.4 ,20.4 ,17.5 ,21.2 
2003/11/5,22:45:00,19.9 ,60.7 ,20.3 ,17.5 ,21.2 
2003/11/5,23:00:00,20.0 ,60.0 ,20.2 ,17.6 ,22.7 
2003/11/5,23:15:00,20.0 ,60.1 ,20.1 ,17.6 ,23.2 
2003/11/5,23:30:00,20.1 ,59.9 ,20.1 ,17.7 ,22.1 
2003/11/5,23:45:00,20.1 ,59.5 ,20.0 ,17.7 ,21.4 
2003/11/6,0:00:00,20.2 ,59.4 ,20.0 ,17.7 ,21.0 
2003/11/6,0:15:00,20.2 ,59.5 ,20.0 ,17.8 ,20.7 
2003/11/6,0:30:00,20.2 ,59.0 ,19.9 ,16.8 ,20.5 